When you browse on this site, cookies collect data to enhance your experience and personalize the content and advertising you see.
Visit our Privacy Policy to learn more. By continuing to use the site, you agree to this use of cookies and data.
  • In Österreich
  • Länderverzeichnis
  • Für 7 Tage
  • Wassertemperatur
  • Satellitenkarten
  • Wetterkarte
  • News
  • Widgets
  • user-avatar
    Anmelden

    Stündliche Wetter Gasni

    Heute, 22 April, Montag

    Zeit Temperatur Niederschläge Wind Luftdruck Luftfeuchtigkeit
    00:00 +17°C° 0 mm 2 m/S 587 mmHg 33%
    01:00 +16°C° 0 mm 2 m/S 587 mmHg 35%
    02:00 +15°C° 0 mm 1 m/S 586 mmHg 37%
    03:00 +15°C° 0 mm 1 m/S 586 mmHg 39%
    04:00 +14°C° 0 mm 1 m/S 586 mmHg 42%
    05:00 +13°C° 0 mm 1 m/S 585 mmHg 44%
    06:00 +14°C° 0 mm 1 m/S 586 mmHg 41%
    07:00 +15°C° 0 mm 1 m/S 587 mmHg 39%
    08:00 +16°C° 0 mm 2 m/S 588 mmHg 36%
    09:00 +18°C° 0 mm 2 m/S 588 mmHg 31%
    10:00 +19°C° 0 mm 2 m/S 589 mmHg 27%
    11:00 +21°C° 0 mm 1 m/S 589 mmHg 22%
    12:00 +21°C° 0 mm 2 m/S 590 mmHg 19%
    13:00 +24°C° 0 mm 3 m/S 590 mmHg 16%
    14:00 +25°C° 0 mm 4 m/S 590 mmHg 12%
    15:00 +25°C° 0 mm 4 m/S 590 mmHg 12%
    16:00 +25°C° 0 mm 5 m/S 590 mmHg 11%
    17:00 +26°C° 0 mm 6 m/S 590 mmHg 11%
    18:00 +23°C° 0 mm 6 m/S 589 mmHg 15%
    19:00 +22°C° 0 mm 5 m/S 589 mmHg 19%
    20:00 +21°C° 0 mm 5 m/S 589 mmHg 23%
    21:00 +20°C° 0 mm 4 m/S 589 mmHg 25%
    22:00 +19°C° 0 mm 4 m/S 589 mmHg 27%
    23:00 +18°C° 0 mm 3 m/S 589 mmHg 30%

    Morgen, 23 April, Dienstag

    Zeit Temperatur Niederschläge Wind Luftdruck Luftfeuchtigkeit
    00:00 +18°C° 0 mm 2 m/S 589 mmHg 31%
    01:00 +17°C° 0 mm 2 m/S 588 mmHg 33%
    02:00 +16°C° 0 mm 1 m/S 588 mmHg 35%
    03:00 +16°C° 0 mm 1 m/S 588 mmHg 35%
    04:00 +16°C° 0 mm 1 m/S 587 mmHg 36%
    05:00 +15°C° 0 mm 1 m/S 587 mmHg 36%
    06:00 +16°C° 0 mm 1 m/S 588 mmHg 34%
    07:00 +18°C° 0 mm 1 m/S 589 mmHg 33%
    08:00 +18°C° 0 mm 1 m/S 589 mmHg 31%
    09:00 +19°C° 0 mm 2 m/S 590 mmHg 29%
    10:00 +20°C° 0 mm 4 m/S 590 mmHg 28%
    11:00 +22°C° 0 mm 5 m/S 591 mmHg 26%
    12:00 +23°C° 0 mm 6 m/S 591 mmHg 26%
    13:00 +23°C° 0 mm 7 m/S 591 mmHg 26%
    14:00 +24°C° 0 mm 8 m/S 591 mmHg 25%
    15:00 +24°C° 0 mm 8 m/S 590 mmHg 26%
    16:00 +24°C° 0 mm 8 m/S 590 mmHg 27%
    17:00 +23°C° 0 mm 9 m/S 590 mmHg 28%
    18:00 +22°C° 0 mm 7 m/S 590 mmHg 31%
    19:00 +21°C° 0 mm 5 m/S 589 mmHg 35%
    20:00 +20°C° 0 mm 3 m/S 589 mmHg 39%
    21:00 +19°C° 0.1 mm 3 m/S 589 mmHg 41%
    22:00 +19°C° 0.1 mm 3 m/S 589 mmHg 44%
    23:00 +18°C° 0.1 mm 2 m/S 589 mmHg 47%

    übermorgen, 24 April, Mittwoch

    Zeit Temperatur Niederschläge Wind Luftdruck Luftfeuchtigkeit
    00:00 +18°C° 0.1 mm 3 m/S 589 mmHg 50%
    01:00 +17°C° 0.1 mm 4 m/S 588 mmHg 53%
    02:00 +15°C° 0.1 mm 5 m/S 588 mmHg 55%
    03:00 +15°C° 0 mm 5 m/S 588 mmHg 57%
    04:00 +14°C° 0 mm 5 m/S 587 mmHg 58%
    05:00 +14°C° 0 mm 4 m/S 587 mmHg 59%
    06:00 +14°C° 0 mm 4 m/S 587 mmHg 59%
    07:00 +15°C° 0 mm 4 m/S 588 mmHg 58%
    08:00 +15°C° 0 mm 4 m/S 588 mmHg 58%
    09:00 +16°C° 0.3 mm 6 m/S 588 mmHg 54%
    10:00 +17°C° 0.3 mm 7 m/S 589 mmHg 49%
    11:00 +18°C° 0.3 mm 9 m/S 589 mmHg 45%
    12:00 +18°C° 0.5 mm 10 m/S 588 mmHg 46%
    13:00 +18°C° 0.5 mm 10 m/S 588 mmHg 48%
    14:00 +18°C° 0.5 mm 11 m/S 587 mmHg 49%
    15:00 +18°C° 0.1 mm 11 m/S 587 mmHg 44%
    16:00 +19°C° 0.1 mm 11 m/S 587 mmHg 40%
    17:00 +21°C° 0.1 mm 11 m/S 587 mmHg 35%
    18:00 +19°C° 0 mm 9 m/S 587 mmHg 35%
    19:00 +18°C° 0 mm 8 m/S 587 mmHg 35%
    20:00 +17°C° 0 mm 6 m/S 587 mmHg 35%
    21:00 +16°C° 0 mm 6 m/S 587 mmHg 37%
    22:00 +15°C° 0 mm 5 m/S 586 mmHg 38%
    23:00 +14°C° 0 mm 4 m/S 586 mmHg 40%

    25 April, Donnerstag

    Zeit Temperatur Niederschläge Wind Luftdruck Luftfeuchtigkeit
    00:00 +14°C° 0 mm 4 m/S 586 mmHg 43%
    01:00 +13°C° 0 mm 4 m/S 585 mmHg 46%
    02:00 +13°C° 0 mm 3 m/S 585 mmHg 48%
    03:00 +12°C° 0 mm 3 m/S 585 mmHg 50%
    04:00 +11°C° 0 mm 3 m/S 584 mmHg 52%
    05:00 +11°C° 0 mm 3 m/S 584 mmHg 54%
    06:00 +11°C° 0 mm 3 m/S 585 mmHg 52%
    07:00 +12°C° 0 mm 4 m/S 585 mmHg 49%
    08:00 +12°C° 0 mm 4 m/S 586 mmHg 47%
    09:00 +14°C° 0 mm 6 m/S 587 mmHg 41%
    10:00 +15°C° 0 mm 7 m/S 587 mmHg 35%
    11:00 +17°C° 0 mm 8 m/S 588 mmHg 29%
    12:00 +17°C° 0 mm 9 m/S 588 mmHg 28%
    13:00 +18°C° 0 mm 10 m/S 588 mmHg 27%
    14:00 +19°C° 0 mm 11 m/S 588 mmHg 26%
    15:00 +18°C° 0 mm 10 m/S 587 mmHg 26%
    16:00 +18°C° 0 mm 10 m/S 587 mmHg 25%
    17:00 +18°C° 0 mm 10 m/S 587 mmHg 25%
    18:00 +17°C° 0 mm 9 m/S 587 mmHg 28%
    19:00 +16°C° 0 mm 8 m/S 587 mmHg 31%
    20:00 +15°C° 0 mm 6 m/S 586 mmHg 34%
    21:00 +14°C° 0 mm 5 m/S 586 mmHg 37%
    22:00 +13°C° 0 mm 5 m/S 586 mmHg 39%
    23:00 +12°C° 0 mm 4 m/S 586 mmHg 42%

    26 April, Freitag

    Zeit Temperatur Niederschläge Wind Luftdruck Luftfeuchtigkeit
    00:00 +12°C° 0 mm 3 m/S 586 mmHg 44%
    01:00 +11°C° 0 mm 3 m/S 585 mmHg 46%
    02:00 +10°C° 0 mm 3 m/S 585 mmHg 49%
    03:00 +10°C° 0 mm 2 m/S 585 mmHg 50%
    04:00 +9°C° 0 mm 2 m/S 584 mmHg 52%
    05:00 +9°C° 0 mm 2 m/S 584 mmHg 53%
    06:00 +10°C° 0 mm 2 m/S 585 mmHg 49%
    07:00 +10°C° 0 mm 2 m/S 586 mmHg 45%
    08:00 +12°C° 0 mm 2 m/S 586 mmHg 41%
    09:00 +13°C° 0 mm 3 m/S 587 mmHg 37%
    10:00 +14°C° 0 mm 4 m/S 588 mmHg 32%
    11:00 +15°C° 0 mm 5 m/S 588 mmHg 27%
    12:00 +16°C° 0 mm 6 m/S 588 mmHg 25%
    13:00 +17°C° 0 mm 7 m/S 588 mmHg 23%
    14:00 +18°C° 0 mm 8 m/S 588 mmHg 21%
    15:00 +18°C° 0 mm 8 m/S 588 mmHg 21%
    16:00 +18°C° 0 mm 9 m/S 587 mmHg 21%
    17:00 +18°C° 0 mm 9 m/S 587 mmHg 20%
    18:00 +16°C° 0 mm 8 m/S 587 mmHg 22%
    19:00 +15°C° 0 mm 8 m/S 587 mmHg 24%
    20:00 +14°C° 0 mm 7 m/S 587 mmHg 26%
    21:00 +14°C° 0 mm 6 m/S 587 mmHg 28%
    22:00 +13°C° 0 mm 5 m/S 587 mmHg 31%
    23:00 +12°C° 0 mm 4 m/S 587 mmHg 33%

    27 April, Samstag

    Zeit Temperatur Niederschläge Wind Luftdruck Luftfeuchtigkeit
    00:00 +11°C° 0 mm 3 m/S 586 mmHg 35%
    01:00 +12°C° 0 mm 2 m/S 586 mmHg 37%
    02:00 +10°C° 0 mm 2 m/S 586 mmHg 39%
    03:00 +10°C° 0 mm 2 m/S 585 mmHg 41%
    04:00 +10°C° 0 mm 1 m/S 585 mmHg 43%
    05:00 +10°C° 0 mm 1 m/S 585 mmHg 44%
    06:00 +10°C° 0 mm 1 m/S 585 mmHg 41%
    07:00 +11°C° 0 mm 1 m/S 586 mmHg 38%
    08:00 +12°C° 0 mm 1 m/S 587 mmHg 34%
    09:00 +13°C° 0 mm 2 m/S 587 mmHg 31%
    10:00 +14°C° 0 mm 3 m/S 588 mmHg 27%
    11:00 +16°C° 0 mm 3 m/S 588 mmHg 24%
    12:00 +17°C° 0 mm 4 m/S 588 mmHg 22%
    13:00 +17°C° 0 mm 5 m/S 588 mmHg 19%
    14:00 +19°C° 0 mm 6 m/S 588 mmHg 17%
    15:00 +18°C° 0 mm 7 m/S 588 mmHg 17%
    16:00 +18°C° 0 mm 8 m/S 587 mmHg 17%
    17:00 +18°C° 0 mm 8 m/S 587 mmHg 18%
    18:00 +17°C° 0 mm 7 m/S 587 mmHg 20%
    19:00 +16°C° 0 mm 7 m/S 587 mmHg 22%
    20:00 +15°C° 0 mm 6 m/S 587 mmHg 24%
    21:00 +14°C° 0 mm 5 m/S 587 mmHg 26%
    22:00 +13°C° 0 mm 5 m/S 587 mmHg 28%
    23:00 +12°C° 0 mm 4 m/S 587 mmHg 30%
    Mehr zeigen